Regional Weather Roundup
Issued by NWS

Home | Current Version | Previous Version | Graphics & Text | Print | Product List | Glossary On
Versions: 1 2 3 4 5 6 7 8 9 10 11 12 13 14 15 16 17 18 19 20 21 22 23 24 25 26 27
000
ASUS45 KBOU 150806
RWRCO

WEATHER ROUNDUP FOR COLORADO
NATIONAL WEATHER SERVICE DENVER/BOULDER CO
200 AM MDT TUE APR 15 2014

NOTE: "FAIR" INDICATES FEW OR NO CLOUDS BELOW 12000 FEET WITH NO
SIGNIFICANT WEATHER AND/OR OBSTRUCTIONS TO VISIBILITY.

COZ001>005-013-030-031-150900-
...NORTHWEST COLORADO...

CITY           SKY/WX    TMP DP  RH WIND       PRES   REMARKS
CRAIG          CLEAR     27  18  69 E7        30.21F WCI  19
HAYDEN         CLEAR     25  18  74 SE8       30.23F WCI  16
MEEKER         CLEAR     25  20  81 E6        30.24F WCI  18
MOUNT WERNER   CLEAR     23   9  54 SW16      30.21S WCI  10
STEAMBOAT SPGS CLEAR     21  16  79 CALM      30.22F
WALDEN         CLEAR     23  10  58 S10       30.16F WCI  12
$$

COZ006>008-011-150900-
...WEST CENTRAL VALLEYS...

CITY           SKY/WX    TMP DP  RH WIND       PRES   REMARKS
GRAND JUNCTION CLEAR     34  22  61 E14       30.25S WCI  25
MONTROSE       CLEAR     31  20  63 SE8       30.29S WCI  23
EAGLE          PTCLDY    25  19  80 CALM      30.28S
RIFLE          CLEAR     29  21  72 SW3       30.26F
DELTA          CLEAR     32  23  68 CALM      30.28S
NUCLA            N/A     30  19  64 SE3       30.29S
$$

COZ017>023-064>068-150900-
...SOUTHWEST COLORADO...

CITY           SKY/WX    TMP DP  RH WIND       PRES   REMARKS
DURANGO        CLEAR     26   4  38 N8        30.22R WCI  18
CORTEZ         CLEAR     24  16  71 E8        30.25S WCI  15
PAGOSA SPRINGS CLEAR     25  11  56 CALM      30.23F
TELLURIDE      CLEAR     21  12  68 E7        30.26S WCI  13
WOLF CREEK PAS CLEAR     19  -8  30 W9        30.26F WCI   9
$$

COZ009-010-012-014-032>034-037-058>063-150900-
...CENTRAL COLORADO...

CITY           SKY/WX    TMP DP  RH WIND       PRES   REMARKS
ASPEN          PTCLDY    21  12  68 SW6       30.24F WCI  13
BUENA VISTA    CLEAR     27   7  43 NW12      30.18F WCI  16
COPPER MTN     PTCLDY    18   3  53 W18       30.19S WCI   2
BERTHOUD PASS  LGT SNOW   9  -2  61 NW33G47   30.10R WCI -15
COTTONWOOD PAS CLEAR     27   0  31 NW14G21   30.17F WCI  15
GUNNISON       CLEAR     21  12  68 N3        30.28F
KREMMLING      PTCLDY    18  12  79 SE5       30.25F WCI  11
LEADVILLE      PTCLDY    12  -2  53 E6        30.19F WCI   3
MONARCH PASS   CLEAR     10   7  85 MISG      30.28F
SALIDA         CLEAR     31  11  44 N6        30.25F WCI  25
SUNLIGHT       PTCLDY    19  14  79 CALM      30.25F
WILKERSON PASS PTCLDY    18   3  53 NW15G30   30.17F WCI   3
$$

COZ069>075-150900-
...SAN LUIS VALLEY/SANGRE DE CRISTO MOUNTAINS...

CITY           SKY/WX    TMP DP  RH WIND       PRES   REMARKS
ALAMOSA        CLEAR     24  16  71 W5        30.21F WCI  18
LA VETA PASS   CLEAR     23   3  42 SW15G24   30.15F WCI  10
SAGUACHE       CLEAR     25   9  50 NW9       30.22F WCI  15
$$

COZ035-036-038>040-150900-
...NORTHERN COLORADO FRONT RANGE...

CITY           SKY/WX    TMP DP  RH WIND       PRES   REMARKS
DENVER INTL AP CLEAR     33  21  61 S18       30.05F WCI  22
DMNS CITY PARK   N/A     35  20  55 SW5G13    30.06F WCI  30
AURORA         CLEAR     32  23  69 S15       30.07F WCI  22
FRONT RANGE AP NOT AVBL
ERIE MUNI ARPT CLEAR     33  22  65 S7        30.05F WCI  26
BOULDER MUN AP CLEAR     32  23  69 S5        30.05F WCI  27
CENTENNIAL     CLEAR     32  18  56 SW12      30.07F WCI  23
BROOMFIELD     CLEAR     32  23  69 CALM      30.06F
FORT COLLINS   CLEAR     28  19  69 CALM      30.07F
LONGMONT       CLEAR     28  25  86 CALM      30.07F
$$

COZ041-046-047-076>085-087-088-150900-
...PIKES PEAK/PALMER DIVIDE AND SOUTHERN FOOTHILLS...

CITY           SKY/WX    TMP DP  RH WIND       PRES   REMARKS
COLO. SPRINGS  CLEAR     28  22  78 CALM      30.16F
A. F. ACADEMY  PTCLDY    20  18  89 N5        30.14F WCI  14
ELLICOTT       NOT AVBL
FALCON         CLEAR     24  22  91 W8        30.14F WCI  15
FORT CARSON    PTCLDY    25  21  85 NW5       30.14F WCI  19
LIMON          CLEAR     28  23  81 SW7       30.12F WCI  21
MONUMENT HILL  CLEAR     27  19  74 SW13      30.10F WCI  16
TRINIDAD       CLEAR     26  19  74 NW6       30.16F WCI  19
$$

COZ042>045-048>051-090-091-150900-
...NORTHEAST COLORADO...

CITY           SKY/WX    TMP DP  RH WIND       PRES   REMARKS
GREELEY ARPT   CLEAR     25  18  74 NE6       30.07F WCI  18
AKRON          CLEAR     27  14  58 S12       30.08F WCI  17
BURLINGTON     CLEAR     27  17  66 SW12      30.15F WCI  17
WRAY           CLEAR     28  22  77 SW9       30.14F WCI  19
STERLING       CLEAR     28  25  86 SW7       30.09F WCI  21
HOLYOKE        CLEAR     28  21  74 SW10      30.11F WCI  19
FORT MORGAN    CLEAR     25  20  82 CALM      30.09F
$$

COZ086-089-092>099-150900-
...SOUTHEAST COLORADO...

CITY           SKY/WX    TMP DP  RH WIND       PRES   REMARKS
PUEBLO         CLEAR     30  27  88 CALM      30.17F
LA JUNTA       CLEAR     31  19  61 SW7       30.19F WCI  24
LAMAR          CLEAR     23  17  78 S9        30.19F WCI  13
SPRINGFIELD      N/A     20  16  84 SW7       30.21F WCI  11
$$



USA.gov is the U.S. government's official web portal to all federal, state and local government web resources and services.